[[{"header":{"parameterUnit":"m.s-1","parameterCategory":1,"la1":30.2991,"la2":30.254,"lo1":-89.0895,"lo2":-89.0444,"dy":0.0017,"dx":0.0017,"nx":28,"ny":28,"refTime":"2025-04-07T21:00:00:Z","depth":0,"parameterNumber":2,"parameterNumberName":"U-component_of_WINDS"},"data":[0,0,0,0,0,0,0,0,0,0,0,0,0,0,0,0,0,0,0,0,0,0,0,0,0,0,0,0,0,0,0,0,0,0,0,0,0,0,0,0,0,0,0,0,0,0,0,0,0,0,0,0,0,0,0,0,0,0,-2.0701,-2.0702,0,-2.0772,-2.0773,-2.0774,-2.069,-2.0687,-2.0684,-2.0681,-2.0756,-2.076,-2.0765,0,0,0,0,0,0,0,0,0,0,0,0,0,-2.0492,-2.0496,-2.0701,-2.0702,-2.0703,-2.0772,-2.0773,-2.0774,-2.0691,-2.0687,-2.0683,-2.0679,-2.0754,-2.076,-2.0766,0,0,0,0,0,0,0,0,0,0,0,0,0,-2.0575,-2.0497,-2.0701,-2.0669,-2.0667,-2.0772,-2.0773,-2.0774,-2.0691,-2.0687,-2.0682,-2.0678,-2.0752,-2.0759,-2.0766,-2.0906,0,0,-2.0789,-2.0792,0,0,0,0,0,0,0,0,-2.057,-2.0583,-2.0673,-2.0672,-2.067,-2.0717,-2.0727,-2.0819,-2.0693,-2.0682,-2.0681,-2.0675,-2.0747,-2.0754,-2.0778,-2.091,-2.0913,-2.079,-2.0794,-2.0797,-2.0799,0,0,0,0,0,0,0,-2.0565,-2.0579,-2.0729,-2.0675,-2.0672,-2.0651,-2.0658,-2.0744,-2.074,-2.0683,-2.0677,-2.0687,-2.0745,-2.0771,-2.0779,-2.0914,-2.0789,-2.0796,-2.0801,-2.0803,-2.116,-2.1165,0,0,0,0,0,0,-2.0562,-2.0575,-2.0727,-2.0731,-2.0607,-2.0659,-2.0666,-2.0707,-2.0739,-2.0739,-2.069,-2.0682,-2.0761,-2.0771,-2.0782,-2.0945,-2.0797,-2.0804,-2.0808,-2.1155,-2.1161,-2.1166,0,0,0,0,0,0,-2.0558,-2.0577,-2.0724,-2.0651,-2.0669,-2.0668,-2.0714,-2.0711,-2.0737,-2.0745,-2.0744,-2.0718,-2.0758,-2.0771,-2.0875,-2.0947,-2.0807,-2.0814,-2.1149,-2.1157,-2.1164,-2.1275,0,0,0,0,0,0,-2.0553,-2.0576,-2.0629,-2.0653,-2.0673,-2.0817,-2.0718,-2.0716,-2.075,-2.074,-2.077,-2.0771,-2.0755,-2.0864,-2.0882,-2.0954,-2.082,-2.1142,-2.1152,-2.1161,-2.1265,-2.1286,-2.1303,0,0,0,0,0,-2.0545,-2.0659,-2.0633,-2.0651,-2.074,-2.0821,-2.0833,-2.0812,-2.0756,-2.0809,-2.0813,-2.077,-2.0936,-2.0876,-2.0895,-2.0971,-2.1138,-2.1149,-2.116,-2.1257,-2.1282,-2.1303,0,0,0,0,0,0,-2.0645,-2.0662,-2.0633,-2.0757,-2.0788,-2.0807,-2.0874,-2.0839,-2.0888,-2.0876,-2.0848,-2.0856,-2.0966,-2.0978,-2.0911,-2.1105,-2.1027,-2.1043,-2.1094,-2.1118,-2.1136,-2.1131,-2.0826,0,0,0,0,0,-2.0681,-2.0746,-2.0757,-2.0866,-2.0883,-2.0876,-2.0911,-2.0892,-2.0923,-2.0936,-2.0948,-2.098,-2.1039,-2.1079,-2.1134,-2.1266,-2.127,-2.1327,-2.1346,-2.1361,-2.1376,-2.1444,-2.1469,-2.1204,-2.1204,-2.1203,0,0,-2.0758,-2.0775,-2.0818,-2.0886,-2.0908,-2.0976,-2.0888,-2.0964,-2.1013,-2.0948,-2.1046,-2.1055,-2.1089,-2.1207,-2.126,-2.1221,-2.1449,-2.1376,-2.1388,-2.1394,-2.1458,-2.1483,-2.1506,-2.1211,-2.121,-2.1209,0,0,-2.0931,-2.0951,-2.1042,-2.1065,-2.1099,-2.1092,-2.1114,-2.1138,-2.1141,-2.1239,-2.1191,-2.1248,-2.1351,-2.1377,-2.1403,-2.1581,-2.1542,-2.16,-2.17,-2.1767,-2.1788,-2.1806,-2.1869,-2.1892,-2.1614,-2.1614,-2.1614,0,-2.1022,-2.1121,-2.1094,-2.1172,-2.1203,-2.1145,-2.1237,-2.1261,-2.1311,-2.1334,-2.1289,-2.1414,-2.1433,-2.1555,-2.1598,-2.1622,-2.1645,-2.1597,-2.1787,-2.1805,-2.1822,-2.1881,-2.1905,-2.1621,-2.162,-2.162,-2.1619,0,-2.123,-2.13,-2.137,-2.1418,-2.1456,-2.1541,-2.1527,-2.1569,-2.1545,-2.1543,-2.1642,-2.1662,-2.1719,-2.1746,-2.1725,-2.1864,-2.1839,-2.1791,-2.1712,-2.1854,-2.1909,-2.1932,-2.1631,-2.1628,-2.1626,-2.1625,0,0,-2.1471,-2.15,-2.1527,-2.1547,-2.1577,-2.163,-2.1711,-2.1765,-2.1802,-2.1837,-2.1904,-2.199,-2.1945,-2.1975,-2.1955,-2.2014,-2.2152,-2.1959,-2.1959,-2.1993,-2.2305,-2.234,-2.2367,-2.2125,-2.213,-2.2133,-2.2302,0,-2.1644,-2.1784,-2.1761,-2.1896,-2.1959,-2.1903,-2.1973,-2.1999,-2.1999,-2.2051,-2.2051,-2.2112,-2.2049,-2.2066,-2.2121,-2.2124,-2.2214,-2.2111,-2.2187,-2.219,-2.218,-2.2396,-2.2435,-2.2594,-2.2323,-2.2327,-2.2329,0,-2.1865,-2.1907,-2.2049,-2.2066,-2.2092,-2.2156,-2.2201,-2.2253,-2.228,-2.2275,-2.2307,-2.2275,-2.2355,-2.2274,-2.2382,-2.2312,-2.2341,-2.2347,-2.2352,-2.2359,-2.2269,-2.2409,-2.2644,-2.2667,-2.2363,-2.2361,-2.2358,0,-2.2026,-2.2117,-2.2213,-2.2232,-2.2256,-2.2301,-2.2313,-2.2336,-2.2369,-2.2409,-2.2429,-2.2479,-2.2506,-2.2544,-2.2526,-2.2469,-2.2637,-2.2555,-2.2635,-2.2635,-2.2674,-2.2672,-2.2917,-2.2693,-2.2692,-2.2692,-2.2692,0,-2.2221,-2.231,-2.2285,-2.2344,-2.2441,-2.2412,-2.2508,-2.2514,-2.2533,-2.2592,-2.2546,-2.2602,-2.2574,-2.2627,-2.2614,-2.2704,-2.2717,-2.2715,-2.271,-2.2719,-2.272,-2.2739,-2.2727,-2.2698,-2.2697,-2.2696,-2.2695,0,-2.2418,-2.2405,-2.2505,-2.2518,-2.2523,-2.2594,-2.2605,-2.2659,-2.2654,-2.2728,-2.2744,-2.2736,-2.2795,-2.278,-2.2847,-2.2837,-2.2951,-2.2933,-2.2942,-2.2937,-2.3018,-2.301,-2.3284,-2.3317,-2.3072,-2.3074,-2.3076,0,-2.2544,-2.261,-2.2629,-2.2665,-2.268,-2.2737,-2.277,-2.2743,-2.2779,-2.2813,-2.2863,-2.2918,-2.2961,-2.3059,-2.3059,-2.3109,-2.3091,-2.3183,-2.3098,-2.3104,-2.3091,-2.3087,-2.3093,-2.32,-2.3203,-2.3205,-2.3207,0,-2.2768,-2.2758,-2.2806,-2.2852,-2.2892,-2.2927,-2.2958,-2.2989,-2.2964,-2.3006,-2.3066,-2.3099,-2.3165,-2.322,-2.3265,-2.3276,-2.3238,-2.3234,-2.3254,-2.3265,-2.3267,-2.3266,-2.2988,-2.3228,-2.3226,-2.3224,-2.3223,-2.3222,-2.2933,-2.2988,-2.301,-2.3065,-2.3084,-2.3113,-2.3164,-2.3164,-2.3213,-2.3264,-2.3245,-2.3313,-2.3335,-2.3391,-2.3407,-2.346,-2.3425,-2.3456,-2.3463,-2.3471,-2.3481,-2.3258,-2.3468,-2.3467,-2.3467,-2.3466,-2.3466,0,-2.3154,-2.3164,-2.3215,-2.3258,-2.3301,-2.3259,-2.329,-2.3328,-2.3389,-2.3412,-2.3455,-2.3522,-2.3574,-2.3577,-2.3626,-2.3667,-2.365,-2.368,-2.3677,-2.368,-2.351,-2.3487,-2.3693,-2.3693,-2.3693,-2.3693,-2.3693,-2.3693,-2.3275,-2.3365,-2.3357,-2.3456,-2.3465,-2.3531,-2.3552,-2.3577,-2.3596,-2.3673,-2.3716,-2.3716,-2.3731,-2.378,-2.3825,-2.3824,-2.3844,-2.3881,-2.3874,-2.3715,-2.3692,-2.3671,-2.3649,-2.3886,-2.3886,-2.4039,-2.4041,-2.4042]},{"header":{"parameterUnit":"m.s-1","parameterCategory":1,"la1":30.2991,"la2":30.254,"lo1":-89.0895,"lo2":-89.0444,"dy":0.0017,"dx":0.0017,"nx":28,"ny":28,"refTime":"2025-04-07T21:00:00:Z","depth":0,"parameterNumber":3,"parameterNumberName":"V-component_of_WINDS"},"data":[0,0,0,0,0,0,0,0,0,0,0,0,0,0,0,0,0,0,0,0,0,0,0,0,0,0,0,0,0,0,0,0,0,0,0,0,0,0,0,0,0,0,0,0,0,0,0,0,0,0,0,0,0,0,0,0,0,0,-4.1526,-4.1527,0,-4.1636,-4.1637,-4.1639,-4.1609,-4.1607,-4.1605,-4.1602,-4.1713,-4.1717,-4.1722,0,0,0,0,0,0,0,0,0,0,0,0,0,-4.1284,-4.1288,-4.1526,-4.1527,-4.1528,-4.1636,-4.1638,-4.1639,-4.1609,-4.1607,-4.1604,-4.1601,-4.1711,-4.1717,-4.1723,0,0,0,0,0,0,0,0,0,0,0,0,0,-4.1391,-4.129,-4.1525,-4.1527,-4.1528,-4.1636,-4.1638,-4.1639,-4.161,-4.1607,-4.1603,-4.16,-4.1709,-4.1716,-4.1724,-4.1836,0,0,-4.1747,-4.175,0,0,0,0,0,0,0,0,-4.1385,-4.14,-4.1525,-4.1527,-4.1528,-4.1605,-4.1593,-4.1705,-4.1611,-4.1579,-4.1602,-4.1599,-4.1679,-4.1689,-4.1717,-4.1841,-4.1846,-4.1747,-4.1752,-4.1755,-4.1757,0,0,0,0,0,0,0,-4.1377,-4.1395,-4.1569,-4.1527,-4.1529,-4.152,-4.1531,-4.1614,-4.1646,-4.1581,-4.1579,-4.1593,-4.168,-4.171,-4.1719,-4.1848,-4.1747,-4.1754,-4.1758,-4.1761,-4.2065,-4.2069,0,0,0,0,0,0,-4.1369,-4.1389,-4.1566,-4.1573,-4.1447,-4.1527,-4.154,-4.1584,-4.1645,-4.1651,-4.1596,-4.1591,-4.1699,-4.1711,-4.1723,-4.1856,-4.1755,-4.1762,-4.1766,-4.2062,-4.2066,-4.207,0,0,0,0,0,0,-4.1364,-4.1385,-4.1561,-4.148,-4.1502,-4.1535,-4.1584,-4.1588,-4.1618,-4.1656,-4.1661,-4.1621,-4.1697,-4.1713,-4.1808,-4.186,-4.1765,-4.1772,-4.2057,-4.2063,-4.2068,-4.2125,0,0,0,0,0,0,-4.1358,-4.1384,-4.1428,-4.1482,-4.1506,-4.1646,-4.1588,-4.1592,-4.1632,-4.1627,-4.1681,-4.1687,-4.1695,-4.1797,-4.1815,-4.1868,-4.1778,-4.2053,-4.206,-4.2066,-4.2118,-4.2131,-4.2142,0,0,0,0,0,-4.1349,-4.144,-4.1431,-4.1452,-4.1563,-4.1649,-4.1663,-4.1671,-4.1636,-4.168,-4.1703,-4.1685,-4.1851,-4.1807,-4.1827,-4.1883,-4.205,-4.2058,-4.2066,-4.2113,-4.2129,-4.2142,0,0,0,0,0,0,-4.1392,-4.1447,-4.1438,-4.1549,-4.1594,-4.1644,-4.17,-4.1688,-4.1744,-4.1737,-4.1744,-4.1757,-4.1853,-4.1878,-4.1827,-4.1993,-4.1945,-4.1957,-4.1974,-4.1989,-4.2001,-4.1992,-4.1784,0,0,0,0,0,-4.1415,-4.1481,-4.1525,-4.1619,-4.1642,-4.1667,-4.1705,-4.1707,-4.1754,-4.1773,-4.1804,-4.1849,-4.1911,-4.1951,-4.2011,-4.2122,-4.2131,-4.217,-4.2182,-4.2192,-4.2202,-4.2259,-4.2276,-4.2096,-4.2096,-4.2096,0,0,-4.1462,-4.15,-4.1542,-4.1629,-4.1664,-4.173,-4.1684,-4.1757,-4.1805,-4.1784,-4.1875,-4.1899,-4.1949,-4.2052,-4.2099,-4.2075,-4.2254,-4.2202,-4.221,-4.2215,-4.2269,-4.2286,-4.2301,-4.2102,-4.2101,-4.21,0,0,-4.1581,-4.1618,-4.1699,-4.1735,-4.1789,-4.1805,-4.1824,-4.1874,-4.1889,-4.1981,-4.1965,-4.2022,-4.213,-4.2165,-4.2198,-4.2327,-4.2311,-4.2346,-4.2409,-4.2464,-4.2478,-4.2491,-4.2534,-4.255,-4.2356,-4.2357,-4.2357,0,-4.1633,-4.1734,-4.1742,-4.1816,-4.1853,-4.1836,-4.1916,-4.1951,-4.2021,-4.2046,-4.202,-4.2152,-4.2185,-4.2294,-4.2325,-4.2353,-4.2372,-4.234,-4.2476,-4.2489,-4.25,-4.2542,-4.2558,-4.236,-4.236,-4.236,-4.2359,0,-4.1793,-4.1863,-4.1921,-4.1989,-4.2033,-4.211,-4.2127,-4.217,-4.2168,-4.2185,-4.2277,-4.2316,-4.2381,-4.2407,-4.2406,-4.2515,-4.2499,-4.2474,-4.2425,-4.2521,-4.256,-4.2576,-4.2366,-4.2364,-4.2363,-4.2362,0,0,-4.1944,-4.2014,-4.2035,-4.2064,-4.2121,-4.2174,-4.2249,-4.2313,-4.2348,-4.2397,-4.2457,-4.2547,-4.2524,-4.256,-4.2563,-4.2612,-4.2708,-4.2581,-4.2582,-4.2601,-4.2827,-4.2843,-4.2862,-4.2698,-4.2701,-4.2704,-4.2821,0,-4.2067,-4.2199,-4.2206,-4.2325,-4.2388,-4.2372,-4.2436,-4.2477,-4.2494,-4.2548,-4.2567,-4.263,-4.2596,-4.2617,-4.2665,-4.2686,-4.2753,-4.2678,-4.2752,-4.2755,-4.2738,-4.2883,-4.2902,-4.3011,-4.2837,-4.284,-4.2842,0,-4.2228,-4.228,-4.2406,-4.2451,-4.2477,-4.2535,-4.2593,-4.2646,-4.269,-4.2699,-4.2739,-4.2733,-4.2807,-4.2756,-4.2856,-4.2804,-4.2835,-4.285,-4.2854,-4.286,-4.2803,-4.289,-4.3046,-4.3062,-4.2866,-4.2864,-4.2862,0,-4.2322,-4.2424,-4.2512,-4.2537,-4.2593,-4.2633,-4.2658,-4.27,-4.2736,-4.2786,-4.2809,-4.2867,-4.2898,-4.2942,-4.2951,-4.2914,-4.305,-4.3001,-4.3057,-4.3057,-4.3086,-4.3083,-4.3247,-4.3109,-4.3109,-4.3108,-4.3108,0,-4.2457,-4.2534,-4.2554,-4.2608,-4.2692,-4.2699,-4.2781,-4.2803,-4.2839,-4.2895,-4.2884,-4.2936,-4.2946,-4.3,-4.3007,-4.3086,-4.3101,-4.3109,-4.3109,-4.3109,-4.3108,-4.3128,-4.312,-4.3113,-4.3112,-4.3111,-4.311,0,-4.2577,-4.2594,-4.2687,-4.2731,-4.2744,-4.2804,-4.2841,-4.289,-4.2906,-4.2976,-4.2993,-4.3017,-4.3079,-4.3092,-4.3167,-4.3171,-4.3265,-4.3259,-4.325,-4.3249,-4.3303,-4.3297,-4.3484,-4.3507,-4.3356,-4.3357,-4.3359,0,-4.2661,-4.2719,-4.2769,-4.2806,-4.2832,-4.2892,-4.2929,-4.2937,-4.2975,-4.3029,-4.3072,-4.3132,-4.3181,-4.3281,-4.3304,-4.3359,-4.3353,-4.3415,-4.3362,-4.3358,-4.3351,-4.3347,-4.3351,-4.3425,-4.3426,-4.3428,-4.3429,0,-4.2808,-4.2812,-4.2867,-4.2924,-4.2968,-4.3014,-4.3056,-4.3086,-4.31,-4.3143,-4.3207,-4.3245,-4.3319,-4.3379,-4.3434,-4.3457,-4.3444,-4.3445,-4.3461,-4.346,-4.3451,-4.3454,-4.3275,-4.3441,-4.344,-4.3439,-4.3438,-4.3438,-4.291,-4.296,-4.3002,-4.3062,-4.3095,-4.3134,-4.3183,-4.3203,-4.3257,-4.3318,-4.3319,-4.3387,-4.3427,-4.35,-4.3526,-4.3578,-4.3559,-4.3582,-4.3587,-4.3592,-4.3596,-4.3444,-4.3588,-4.3588,-4.3588,-4.3587,-4.3587,0,-4.3054,-4.308,-4.3135,-4.3195,-4.3241,-4.3226,-4.3272,-4.3311,-4.3371,-4.341,-4.3458,-4.3529,-4.3585,-4.3612,-4.3668,-4.3704,-4.3699,-4.3718,-4.3714,-4.3719,-4.3612,-4.3591,-4.372,-4.372,-4.372,-4.372,-4.372,-4.372,-4.3135,-4.3217,-4.3226,-4.3323,-4.3348,-4.3415,-4.3442,-4.3477,-4.3507,-4.3587,-4.3634,-4.3651,-4.3684,-4.3742,-4.3792,-4.3798,-4.3818,-4.3839,-4.3842,-4.3741,-4.3727,-4.3714,-4.3695,-4.3844,-4.3844,-4.3945,-4.3946,-4.3947]}]]